Pontiac, MI

10:35 AM EST on December 16, 2017 (GMT -0500)
Oakland County International

Weather History for KPTK - September, 2011

Change the Weather History Date:

Wednesday, September 7, 2011

  Actual Average Record
Temperature  
Mean Temperature 56 °F -  
Max Temperature 61 °F 75 °F 91 °F (2002)
Min Temperature 52 °F 55 °F 48 °F (2017)
Degree Days  
Heating Degree Days 9    
Growing Degree Days 6 (Base 50)    
Moisture  
Dew Point 53 °F    
Average Humidity 88    
Maximum Humidity 94    
Minimum Humidity 77    
Precipitation  
Precipitation 0.39 in - - ()
Sea Level Pressure  
Sea Level Pressure 30.08 in    
Wind  
Wind Speed 10 mph (NNE)    
Max Wind Speed 16 mph    
Max Gust Speed 25 mph    
Visibility 8 miles    
Events Rain    
Averages and records for this station are not official NWS values.
T = Trace of Precipitation, MM = Missing Value Source: NWS Daily Summary

Daily Weather History Graph

Daily Weather History Graph

Search for Another Location

Airport or City:

Trip Planner

Search our weather history database for the weather conditions in past years. The results will help you decide how hot, cold, wet, or windy it might be!

Date:

Astronomy

Sep. 07, 2011 Rise Set
Actual Time 7:04 AM EDT 7:58 PM EDT
Civil Twilight 6:35 AM EDT 8:26 PM EDT
Nautical Twilight 6:01 AM EDT 9:00 PM EDT
Astronomical Twilight 5:26 AM EDT 9:36 PM EDT
Moon 5:19 PM EDT (9/7) 2:14 AM EDT (9/7)
Length of Visible Light 13h 50m
Length of Day
12h 53m
Waxing Gibbous, 79% of the Moon is Illuminated
Sep 7
Waxing Gibbous
Sep 12
Full
Sep 20
Last Quarter
Sep 27
New
Oct 3
First Quarter

Hourly Weather History & Observations

Time (EDT) Temp. Dew Point Humidity Pressure Visibility Wind Dir Wind Speed Gust Speed Precip Events Conditions
12:53 AM 53.1 °F 50.0 °F 89% 30.14 in 10.0 mi NNE 6.9 mph - N/A   Scattered Clouds
1:53 AM 52.0 °F 50.0 °F 93% 30.13 in 10.0 mi North 6.9 mph - N/A   Scattered Clouds
2:53 AM 52.0 °F 50.0 °F 93% 30.11 in 10.0 mi North 5.8 mph - N/A   Scattered Clouds
3:53 AM 52.0 °F 48.9 °F 89% 30.11 in 10.0 mi North 5.8 mph - N/A   Partly Cloudy
4:53 AM 53.1 °F 50.0 °F 89% 30.09 in 10.0 mi North 8.1 mph - N/A   Scattered Clouds
5:24 AM 53.6 °F 51.8 °F 94% 30.09 in 10.0 mi North 8.1 mph - N/A   Mostly Cloudy
5:53 AM 54.0 °F 51.1 °F 90% 30.09 in 10.0 mi North 9.2 mph - N/A   Mostly Cloudy
6:17 AM 53.6 °F 51.8 °F 94% 30.09 in 10.0 mi North 10.4 mph - N/A   Mostly Cloudy
6:53 AM 55.0 °F 52.0 °F 89% 30.09 in 10.0 mi North 6.9 mph - N/A   Overcast
7:15 AM 55.4 °F 51.8 °F 88% 30.10 in 10.0 mi NNE 8.1 mph - N/A   Mostly Cloudy
7:38 AM 55.4 °F 51.8 °F 88% 30.10 in 10.0 mi NNE 9.2 mph - N/A   Mostly Cloudy
7:53 AM 55.9 °F 52.0 °F 87% 30.11 in 10.0 mi NNE 10.4 mph - N/A   Mostly Cloudy
8:53 AM 57.9 °F 53.1 °F 84% 30.10 in 10.0 mi NNE 11.5 mph 20.7 mph N/A   Mostly Cloudy
9:53 AM 59.0 °F 53.1 °F 81% 30.11 in 10.0 mi NNE 12.7 mph - N/A   Mostly Cloudy
10:53 AM 60.8 °F 53.6 °F 77% 30.10 in 8.0 mi NNE 12.7 mph - N/A Rain Light Rain
11:30 AM 60.8 °F 53.6 °F 77% 30.10 in 10.0 mi NNE 12.7 mph - 0.00 in   Overcast
11:53 AM 60.1 °F 54.0 °F 80% 30.10 in 8.0 mi NNE 13.8 mph - 0.01 in Rain Light Rain
12:53 PM 59.0 °F 55.9 °F 90% 30.10 in 4.0 mi NNE 12.7 mph - 0.06 in Rain Rain
1:08 PM 57.2 °F 55.4 °F 94% 30.09 in 6.0 mi North 12.7 mph - 0.03 in Rain Light Rain
1:20 PM 57.2 °F 55.4 °F 94% 30.08 in 10.0 mi NNE 13.8 mph 25.3 mph 0.03 in Rain Light Rain
1:53 PM 57.9 °F 55.0 °F 90% 30.09 in 3.0 mi North 13.8 mph - 0.08 in Rain Heavy Rain
1:56 PM 57.2 °F 53.6 °F 88% 30.08 in 3.0 mi North 16.1 mph - 0.00 in Rain Heavy Rain
2:53 PM 57.9 °F 54.0 °F 87% 30.07 in 10.0 mi North 15.0 mph 23.0 mph 0.01 in   Overcast
3:41 PM 55.4 °F 53.6 °F 94% 30.07 in 1.8 mi North 15.0 mph - 0.09 in Rain Heavy Rain
3:53 PM 55.9 °F 53.1 °F 90% 30.07 in 1.5 mi North 12.7 mph - 0.15 in Rain Rain
4:08 PM 57.2 °F 53.6 °F 88% 30.05 in 5.0 mi North 13.8 mph - 0.01 in Rain Light Rain
4:53 PM 57.9 °F 53.1 °F 84% 30.04 in 10.0 mi North 13.8 mph 25.3 mph 0.01 in   Overcast
5:53 PM 60.1 °F 55.0 °F 83% 30.04 in 10.0 mi North 15.0 mph - 0.00 in   Overcast
6:53 PM 59.0 °F 54.0 °F 83% 30.05 in 10.0 mi North 16.1 mph 20.7 mph N/A   Overcast
7:53 PM 59.0 °F 53.1 °F 81% 30.06 in 10.0 mi NNE 12.7 mph - N/A   Overcast
8:53 PM 57.9 °F 54.0 °F 87% 30.06 in 6.0 mi North 11.5 mph - 0.04 in Rain Light Rain
9:53 PM 57.0 °F 54.0 °F 89% 30.06 in 10.0 mi North 9.2 mph - 0.03 in   Mostly Cloudy
10:37 PM 57.2 °F 53.6 °F 88% 30.06 in 10.0 mi North 9.2 mph - 0.00 in Rain Light Rain
10:53 PM 57.0 °F 54.0 °F 89% 30.06 in 7.0 mi North 11.5 mph - 0.00 in Rain Light Rain
11:14 PM 57.2 °F 53.6 °F 88% 30.05 in 4.0 mi North 10.4 mph - 0.00 in Rain Light Rain
11:53 PM 57.2 °F 55.4 °F 94% 30.04 in 7.0 mi North 9.2 mph - N/A   Overcast